RH
12 17 22 25 27 29 30 33 37 39 38 40 45 48 49 48 49 50 53 56 60 69 72 71 72 71 71 72 68 66 66 66 67 68 69 66 61 58 55 51 48 45 43 40 39 37 35 34 35 35 35 34 33 33 34 31 29 29 30 31 30 31 34 35 34 34 35 39 44 50 54 52 52 54 51 50 52 54 52 46 44 45 44 45 46 46
14 18 21 21 25 28 31 34 35 35 35 36 39 45 51 49 46 45 46 48 55 66 67 63 65 65 65 69 66 61 61 61 62 63 66 67 66 63 59 56 53 49 45 43 42 41 38 37 35 35 36 36 35 34 30 28 28 29 30 31 30 30 33 35 35 34 35 40 43 47 51 52 52 51 50 50 52 54 51 43 43 44 43 43 44 45
16 17 19 21 25 27 30 33 34 35 36 36 37 42 50 48 46 47 46 45 52 62 64 58 57 56 56 61 60 54 54 57 58 59 61 63 66 67 64 61 57 52 47 44 44 43 42 40 37 35 34 35 36 34 30 27 28 28 30 31 29 29 30 33 35 33 34 36 39 44 48 51 53 51 51 52 51 50 49 44 42 42 42 42 42 43
17 17 21 25 26 26 27 30 33 35 35 36 36 39 44 45 46 48 47 46 49 56 60 55 51 49 50 54 54 48 47 52 55 58 59 61 65 67 68 67 62 55 49 45 44 43 42 41 39 37 35 34 34 35 33 31 30 29 29 29 29 29 29 31 34 33 32 34 36 39 42 46 50 50 48 48 46 44 45 44 42 40 41 41 41 42
20 21 26 28 26 24 25 27 30 33 34 35 36 38 42 43 45 44 43 45 45 46 52 51 47 47 47 48 49 47 43 45 52 56 60 61 63 66 70 71 68 60 52 48 45 43 42 41 40 39 37 35 33 35 34 32 32 30 27 26 28 29 28 30 31 31 32 34 35 36 36 40 43 43 42 43 44 43 42 44 43 42 41 40 40 42
26 28 28 29 26 23 23 24 25 28 32 35 35 37 40 40 43 43 43 44 43 44 46 47 47 47 46 47 48 50 48 49 52 55 60 61 61 66 70 71 72 67 58 51 46 44 42 41 40 40 39 37 34 34 34 33 32 30 27 24 26 27 27 28 29 29 30 32 35 35 33 35 39 40 40 42 46 45 44 47 47 43 41 41 41 42
31 30 28 29 27 24 23 22 21 23 30 37 36 36 37 37 39 42 44 45 43 43 43 44 48 48 49 53 54 55 56 58 56 52 55 58 59 64 68 69 73 73 66 57 50 47 44 42 41 40 40 38 36 35 34 34 32 30 27 24 24 25 26 28 28 28 28 30 33 34 33 35 38 41 40 40 45 48 47 48 48 44 42 41 42 42
30 29 29 31 30 28 25 22 22 21 26 35 34 32 35 36 37 39 43 46 43 40 40 42 45 44 50 58 57 57 60 62 60 52 50 54 56 60 64 65 69 72 72 66 57 51 47 44 42 41 40 38 37 37 35 34 33 30 28 26 24 24 24 26 27 27 27 28 31 33 34 36 39 43 42 38 41 46 45 45 46 45 44 42 42 42
27 28 30 30 30 31 28 25 25 20 22 30 27 25 30 34 36 36 41 46 42 39 41 43 43 42 49 57 54 57 61 62 62 58 54 56 58 60 60 62 65 67 71 70 65 59 53 49 46 44 42 39 38 38 37 36 35 31 29 27 26 24 24 24 25 26 26 26 28 31 34 35 37 42 44 41 41 43 41 42 43 43 44 44 43 42
25 25 28 28 29 31 30 27 25 21 22 26 22 20 25 30 34 35 38 42 39 39 42 43 42 42 49 57 55 57 62 59 59 58 56 57 60 62 60 59 61 64 68 70 69 65 60 54 50 47 45 41 38 38 39 38 36 32 29 29 26 24 24 23 24 25 26 26 26 28 32 34 35 39 43 44 43 42 41 42 43 42 42 45 45 43
21 21 23 25 26 26 25 23 23 22 23 22 18 18 21 26 31 34 36 37 37 39 38 38 41 42 49 59 59 60 61 57 56 54 51 52 54 59 59 57 59 62 65 68 67 66 63 58 53 50 48 44 41 39 39 39 37 34 31 29 28 26 24 23 22 24 25 25 25 26 29 32 34 36 39 41 41 41 42 43 45 43 43 44 44 44
18 19 19 21 22 21 20 20 22 22 22 19 18 19 21 24 29 33 36 36 36 37 34 33 37 40 46 56 60 61 61 58 56 51 47 49 51 54 56 57 58 60 63 66 68 67 65 61 56 51 50 48 45 42 41 41 39 36 32 29 29 28 26 25 22 23 24 25 24 24 25 28 31 33 35 37 38 40 43 43 43 43 42 41 41 42
17 17 16 17 19 19 19 19 20 22 22 21 21 21 22 23 26 30 34 35 34 34 32 28 30 39 49 52 54 60 61 59 58 51 45 48 51 52 53 56 57 59 61 64 69 69 67 65 60 54 51 49 48 46 43 42 41 39 34 30 29 28 28 27 25 23 24 24 24 24 24 25 27 29 31 33 35 37 40 42 41 39 39 38 37 40
17 16 15 16 17 17 18 18 19 21 21 22 23 22 22 22 24 26 28 30 30 30 29 25 28 40 51 50 49 56 59 60 60 56 48 45 49 51 51 54 56 59 61 63 65 67 67 68 65 60 54 50 49 48 45 43 42 41 36 32 30 29 27 28 27 25 24 24 24 24 24 24 25 26 28 30 32 34 36 37 37 37 38 37 37 39
18 18 17 17 17 17 17 17 19 20 20 21 23 22 21 21 21 21 22 22 23 25 25 25 28 37 46 47 46 52 57 59 61 58 50 45 48 50 50 50 52 55 59 61 62 63 66 68 68 65 60 55 53 51 48 45 43 41 37 33 31 29 28 27 26 27 26 24 24 24 24 24 24 25 26 27 30 32 33 33 34 34 37 39 39 38
19 19 18 16 17 16 16 17 17 18 19 21 21 21 22 22 20 21 21 19 18 21 22 23 32 40 45 45 45 49 54 56 55 54 51 49 49 50 50 48 47 49 52 57 59 61 63 66 68 68 65 60 58 56 52 48 44 42 38 35 33 31 29 27 26 27 27 26 25 24 23 23 23 24 25 26 27 28 29 30 30 30 31 34 36 34
21 20 19 17 17 17 16 17 17 18 20 21 20 20 22 22 22 24 24 21 17 19 20 22 33 42 44 44 44 46 51 53 52 49 49 50 51 51 51 47 45 45 46 50 55 58 61 63 66 69 67 63 61 60 56 51 47 42 38 36 35 32 31 29 27 27 27 26 26 24 24 22 22 22 23 24 24 25 26 26 27 27 26 28 29 28
23 21 20 18 18 18 17 17 17 19 20 21 20 20 21 20 22 23 24 22 17 19 23 23 29 34 35 41 45 43 47 52 49 45 45 48 50 51 52 49 47 47 46 49 53 55 58 60 63 68 69 66 63 63 60 55 50 46 41 38 36 34 32 30 28 27 26 27 26 25 25 23 22 21 21 23 23 24 24 23 24 24 24 25 25 27
23 22 20 19 19 19 18 18 20 20 20 20 21 20 21 21 22 22 24 24 17 19 26 27 30 32 32 42 49 45 46 50 48 44 43 45 49 51 53 54 52 51 50 50 53 54 56 57 61 67 70 68 66 64 62 57 54 50 47 43 39 36 34 32 31 28 27 27 26 25 25 24 23 22 20 21 23 22 21 22 22 22 23 23 23 24
24 23 21 20 20 20 20 19 21 22 20 20 21 20 21 23 23 22 22 23 18 19 29 32 32 35 36 43 49 47 46 50 50 47 43 44 47 48 51 55 56 55 54 53 54 54 56 57 60 65 69 69 67 66 64 60 57 54 52 48 44 41 37 35 34 31 28 27 26 26 25 24 24 23 21 20 20 21 20 20 21 20 21 21 21 21
24 24 22 21 20 21 22 21 21 22 21 21 21 21 21 22 24 24 22 23 20 23 32 34 33 38 39 39 45 47 46 48 51 50 46 44 44 44 47 52 55 57 57 55 54 56 58 58 60 65 69 70 67 66 65 62 59 58 58 54 50 47 42 38 37 34 32 29 27 26 25 25 24 23 23 21 19 18 19 19 19 20 20 20 20 19
24 24 23 22 21 22 23 22 21 21 21 21 20 21 21 21 23 24 23 23 21 23 33 37 37 39 38 39 44 47 46 46 50 51 51 47 43 43 47 50 53 56 58 57 55 57 63 65 65 68 70 70 69 67 66 64 61 59 59 57 54 52 48 44 42 38 35 33 29 27 26 25 25 24 23 22 20 18 17 17 18 18 19 19 18 18
23 24 24 24 23 22 22 21 22 21 21 21 21 21 21 21 22 23 25 26 21 21 29 36 39 40 38 41 46 46 45 46 48 50 52 50 45 44 48 51 54 55 57 59 58 58 65 70 70 69 68 69 70 68 67 67 64 60 59 58 57 55 51 49 48 43 39 36 33 31 29 27 25 25 24 23 23 20 18 17 16 17 18 17 18 18
22 24 25 25 24 23 22 21 21 22 21 22 22 21 20 22 22 21 26 29 25 22 23 28 37 41 40 44 46 45 46 46 46 49 49 48 47 48 50 51 53 55 55 58 58 59 63 69 71 72 70 70 70 69 68 68 66 63 60 58 59 60 58 55 53 50 44 39 38 37 35 32 28 26 24 23 23 23 21 19 18 16 16 17 18 18
24 25 25 25 24 24 24 23 22 22 22 23 23 23 21 22 22 21 24 27 27 27 24 26 36 40 40 43 45 44 46 46 46 48 46 44 45 50 51 51 52 54 56 56 57 57 59 64 70 73 72 71 72 72 70 69 68 67 64 59 59 63 65 62 57 54 50 45 43 42 39 36 33 29 26 24 23 23 22 23 22 18 15 16 18 18
25 26 26 28 27 25 27 28 26 23 22 22 23 24 23 23 22 23 25 26 28 30 29 31 40 43 41 43 44 44 46 47 46 45 44 42 42 45 50 51 51 53 55 56 57 56 56 59 64 69 70 70 73 75 73 71 71 70 68 63 59 58 61 64 62 57 54 50 48 45 41 39 37 32 29 26 25 25 25 24 24 22 18 15 16 17
24 24 26 28 30 29 31 31 28 25 23 23 23 23 23 23 24 24 26 28 30 31 32 35 41 44 43 43 43 41 41 45 46 43 41 40 39 40 44 48 51 54 56 57 57 56 54 55 58 64 67 69 71 73 73 73 73 73 71 68 64 58 56 60 63 61 57 53 51 47 42 40 39 36 33 31 29 29 28 26 26 25 22 18 17 16
25 25 24 24 24 25 26 26 24 24 25 24 23 22 22 23 25 27 28 31 31 32 34 36 38 43 44 43 43 38 35 41 44 40 38 38 37 38 40 43 48 55 59 59 58 57 56 55 55 59 63 66 68 72 73 73 74 74 74 73 70 64 56 55 60 62 58 55 53 49 43 40 40 39 37 35 33 32 30 29 27 26 24 22 20 18
26 26 23 24 23 21 21 21 21 23 24 23 23 22 22 21 24 28 28 28 30 33 36 35 39 47 47 43 44 39 35 37 38 35 35 35 34 36 37 39 44 51 58 61 61 60 58 57 56 57 60 62 64 67 71 73 74 74 76 77 75 70 62 56 56 59 59 57 56 52 46 43 43 41 39 38 36 34 32 30 28 27 25 24 22 21
25 27 23 23 25 23 21 20 21 22 23 22 22 22 21 21 22 24 25 26 28 33 36 36 41 48 45 43 46 41 34 33 33 34 35 33 34 36 35 37 41 47 54 60 63 64 62 60 57 56 58 61 61 61 66 73 77 76 77 79 79 76 71 63 57 56 57 57 56 53 50 47 45 44 42 40 38 36 34 32 31 29 28 26 25 25
25 28 22 20 24 23 20 19 20 21 21 21 22 21 20 21 20 21 23 24 26 31 37 40 44 47 41 39 46 44 38 37 35 33 35 35 35 36 36 36 39 44 49 55 60 64 66 64 62 59 58 60 60 58 60 68 75 77 78 80 81 80 80 75 66 59 57 57 56 54 51 48 47 46 45 43 40 39 37 36 34 32 30 29 28 27
26 28 21 19 22 21 19 18 18 18 18 18 19 19 19 20 22 23 23 24 27 33 38 39 44 50 45 39 46 50 48 48 45 36 36 38 37 37 37 36 38 41 46 52 56 59 63 65 67 66 63 61 62 60 57 60 67 73 76 79 82 82 82 82 76 68 63 61 59 56 53 50 48 47 46 44 42 41 40 39 37 34 33 31 30 29
25 25 22 20 21 21 19 17 17 16 15 14 16 17 18 19 22 24 24 25 28 31 36 36 41 50 49 43 46 49 47 51 52 42 36 39 40 38 37 36 37 38 41 48 53 54 55 59 62 67 67 65 64 65 62 59 61 66 70 75 80 82 82 82 80 76 72 68 64 61 57 53 49 48 46 44 44 43 43 42 41 38 35 34 33 32
23 24 24 22 23 24 21 18 18 17 16 19 19 15 16 19 19 21 27 29 27 28 35 40 41 44 47 47 46 44 41 44 45 41 37 38 40 39 37 36 37 37 37 41 48 51 52 53 55 59 63 64 65 67 67 64 62 63 65 70 75 79 81 82 80 79 77 74 70 68 65 60 53 50 48 46 45 44 44 44 43 41 39 38 36 34
27 27 27 24 24 25 22 20 21 21 21 23 20 15 15 16 15 19 25 27 24 26 32 38 40 37 37 41 40 36 37 38 38 38 38 36 37 39 37 36 35 36 36 37 40 45 49 50 50 50 53 58 63 67 67 67 65 62 63 68 74 76 79 80 81 81 80 79 77 74 71 68 62 54 51 48 46 46 46 46 44 43 42 41 39 35
30 30 27 25 25 25 22 21 23 26 25 21 16 15 16 16 16 18 21 21 21 23 26 33 39 34 29 31 32 31 35 36 35 38 38 34 35 37 36 35 35 35 36 36 37 39 41 44 45 44 45 51 59 64 66 68 69 65 64 67 70 73 75 77 79 81 81 81 82 79 76 73 70 64 58 52 48 46 47 48 46 44 43 42 41 39
27 30 29 28 27 26 24 24 25 25 23 19 17 17 17 20 22 20 22 27 26 20 20 25 29 26 24 26 27 29 31 30 32 39 41 35 33 34 34 35 35 34 35 36 37 37 38 40 41 42 42 46 53 57 61 67 68 66 67 68 65 64 67 71 75 79 81 82 82 82 80 76 73 71 66 59 52 48 46 47 46 45 43 42 42 41
22 28 32 30 28 27 25 27 26 23 23 24 21 18 17 21 22 18 20 30 29 20 19 21 21 21 22 23 24 25 27 28 33 42 46 40 34 33 32 33 34 35 35 36 37 36 38 40 41 42 42 43 47 50 55 62 65 65 68 69 64 58 58 62 67 71 76 81 84 84 84 81 76 74 72 67 61 54 48 46 45 45 43 41 41 41
22 25 29 28 29 29 24 25 26 26 30 32 25 21 20 20 21 20 20 27 30 24 21 21 20 21 21 22 22 22 24 28 33 39 45 42 36 32 30 28 29 31 32 34 34 35 37 39 40 42 42 42 43 45 48 56 62 67 69 67 63 60 56 55 60 65 69 76 82 85 87 84 80 78 75 72 69 65 58 52 48 46 45 42 41 41
30 30 31 29 28 28 25 24 26 28 32 31 24 22 21 20 22 25 26 30 35 30 25 24 24 23 23 24 23 23 25 29 30 33 36 33 28 26 26 26 27 27 28 29 30 32 35 36 37 39 41 43 44 44 46 49 54 62 69 65 62 63 58 53 55 62 65 70 75 81 87 89 86 82 80 78 76 72 68 63 59 54 50 47 44 43
39 37 36 32 29 29 28 25 25 28 31 29 23 22 22 23 25 26 30 37 38 33 29 28 26 26 26 25 24 24 26 27 25 25 26 23 21 22 23 24 25 25 26 26 27 29 31 33 35 36 37 41 44 44 46 48 48 52 60 63 63 63 60 54 54 58 62 67 70 75 81 86 87 86 85 84 81 77 74 73 70 65 59 55 50 47
40 40 38 35 33 33 33 31 29 32 33 29 25 24 23 25 28 30 33 37 35 30 29 28 25 26 26 25 25 25 26 25 24 23 22 22 22 22 22 21 22 23 25 25 26 26 27 29 32 34 34 36 39 41 44 48 49 48 49 55 60 60 57 55 56 57 60 63 67 70 73 75 79 84 86 85 83 81 77 76 74 70 65 62 59 53
37 37 36 34 34 33 35 35 34 36 37 31 26 28 27 27 32 34 34 34 31 29 28 27 26 27 27 26 26 26 25 25 25 23 23 23 23 23 23 23 22 21 22 24 24 24 25 26 28 31 33 33 35 37 40 44 49 50 47 48 53 55 53 51 53 56 59 61 65 70 71 69 69 76 83 86 86 84 79 75 74 69 65 65 66 63
37 35 33 33 35 33 32 34 34 35 35 30 28 31 30 28 31 33 30 30 29 28 28 26 27 28 29 27 27 27 26 26 25 24 24 23 23 24 24 24 24 24 23 22 22 22 23 24 26 27 29 32 34 36 37 39 43 48 49 47 49 52 52 51 50 52 57 60 64 69 73 71 67 67 75 82 87 88 84 77 74 70 64 62 64 64
39 37 35 36 38 35 31 35 38 35 30 27 27 29 28 27 29 29 26 25 25 25 26 26 26 27 28 28 27 27 26 25 24 24 23 23 23 24 25 26 27 27 26 25 24 24 23 23 24 24 25 29 32 34 35 36 39 44 47 48 48 50 52 52 52 52 54 58 62 66 70 73 71 69 72 76 80 85 86 81 76 72 67 64 63 62
40 40 39 38 39 37 32 33 35 32 28 28 28 29 29 28 27 25 23 23 23 24 26 26 26 27 27 27 27 27 25 25 25 23 23 24 24 24 25 27 27 27 27 28 28 28 26 24 24 24 24 25 29 33 35 36 38 40 43 45 45 47 50 52 53 53 53 55 58 60 62 66 70 71 73 74 73 77 81 81 79 75 70 68 68 65
42 41 40 38 41 43 40 37 35 32 31 31 31 32 33 31 29 27 25 24 24 25 26 26 27 28 27 26 27 27 27 27 26 25 25 26 26 26 27 27 27 27 28 30 30 30 29 27 26 25 24 23 25 29 33 37 38 36 37 42 43 42 45 49 51 53 54 54 55 54 54 56 61 65 69 72 72 72 74 78 80 79 75 72 70 67
49 47 44 41 42 44 43 42 42 40 38 37 37 36 36 35 34 32 30 27 28 28 27 26 27 26 25 25 26 26 27 27 26 27 27 27 27 28 28 27 27 28 29 31 32 32 32 31 29 27 26 24 24 26 28 34 38 36 36 42 43 38 38 43 48 51 53 53 55 55 52 50 52 55 59 64 67 69 72 74 76 78 76 74 73 72
58 57 53 49 48 47 44 44 44 44 44 43 42 40 40 39 39 38 35 33 33 31 29 28 27 26 25 25 26 25 26 26 27 27 28 28 28 28 27 26 26 27 29 31 32 34 35 34 32 30 28 26 26 26 26 28 34 36 37 44 47 41 35 37 42 48 52 53 53 56 56 52 50 49 51 53 57 62 68 71 73 73 73 73 74 73
64 64 63 63 60 55 51 50 51 52 52 50 49 48 47 45 43 43 42 39 37 35 33 31 29 28 28 26 26 26 26 27 28 27 26 26 25 25 25 25 25 26 28 29 31 34 36 36 35 33 31 28 27 28 27 27 31 35 37 43 48 45 39 36 36 41 49 53 53 55 57 55 51 48 49 50 49 51 57 65 71 72 71 71 72 69
68 69 69 70 69 64 60 59 60 61 59 57 57 57 55 51 48 47 46 44 42 41 38 35 33 31 29 28 27 27 27 27 27 26 25 24 24 24 24 24 25 25 26 27 29 32 34 38 38 36 34 32 29 29 29 28 29 32 35 40 45 46 44 40 37 36 41 48 53 56 58 58 56 52 50 49 48 46 47 52 60 66 70 72 72 68